| time (UTC) | temp C | wind direction | speed KPH | gust KPH | rain 1hr cm | rain 24hr cm | rain mn cm | humidity % | barometer mb |
| 20260502213101 | 18 | 323 | 8.0 | 24.1 | 0.00 | 0.00 | 0.00 | 36 | 1012.6 |
| 20260502212511 | 18 | 285 | 4.8 | 19.3 | 0.00 | 0.00 | 0.00 | 34 | 1012.7 |
| 20260502212044 | 18 | 351 | 6.4 | 19.3 | 0.00 | 0.00 | 0.00 | 35 | 1012.8 |
| 20260502211504 | 19 | 292 | 6.4 | 16.1 | 0.00 | 0.00 | 0.00 | 35 | 1012.9 |
| 20260502211052 | 19 | 329 | 4.8 | 16.1 | 0.00 | 0.00 | 0.00 | 37 | 1012.9 |
| 20260502210520 | 18 | 334 | 8.0 | 19.3 | 0.00 | 0.00 | 0.00 | 35 | 1013.1 |
| 20260502210041 | 18 | 298 | 6.4 | 19.3 | 0.00 | 0.00 | 0.00 | 35 | 1013.1 |
| 20260502205514 | 18 | 330 | 6.4 | 19.3 | 0.00 | 0.00 | 0.00 | 35 | 1013.3 |
| 20260502205057 | 18 | 336 | 9.7 | 24.1 | 0.00 | 0.00 | 0.00 | 34 | 1013.4 |
| 20260502204531 | 18 | 360 | 9.7 | 24.1 | 0.00 | 0.00 | 0.00 | 34 | 1013.5 |
| 20260502204053 | 18 | 301 | 11.3 | 19.3 | 0.00 | 0.00 | 0.00 | 34 | 1013.5 |
| 20260502203517 | 18 | 270 | 6.4 | 20.9 | 0.00 | 0.00 | 0.00 | 36 | 1013.6 |
| 20260502203003 | 18 | 340 | 9.7 | 20.9 | 0.00 | 0.00 | 0.00 | 35 | 1013.7 |
| 20260502202523 | 18 | 360 | 4.8 | 17.7 | 0.00 | 0.00 | 0.00 | 36 | 1013.9 |
| 20260502202046 | 18 | 275 | 6.4 | 17.7 | 0.00 | 0.00 | 0.00 | 36 | 1014.0 |
| 20260502201603 | 18 | 277 | 3.2 | 17.7 | 0.00 | 0.00 | 0.00 | 37 | 1014.1 |
| 20260502201013 | 17 | 346 | 8.0 | 19.3 | 0.00 | 0.00 | 0.00 | 35 | 1014.3 |
| 20260502200535 | 17 | 221 | 9.7 | 19.3 | 0.00 | 0.00 | 0.00 | 35 | 1014.3 |
| 20260502200008 | 17 | 292 | 6.4 | 22.5 | 0.00 | 0.00 | 0.00 | 36 | 1014.5 |
| 20260502195549 | 17 | 288 | 11.3 | 22.5 | 0.00 | 0.00 | 0.00 | 36 | 1014.5 |
| 20260502195022 | 17 | 301 | 8.0 | 22.5 | 0.00 | 0.00 | 0.00 | 37 | 1014.6 |
| 20260502194603 | 17 | 340 | 6.4 | 29.0 | 0.00 | 0.00 | 0.00 | 38 | 1014.7 |
| 20260502194017 | 17 | 344 | 11.3 | 29.0 | 0.00 | 0.00 | 0.00 | 37 | 1014.9 |
| 20260502193543 | 17 | 325 | 3.2 | 22.5 | 0.00 | 0.00 | 0.00 | 38 | 1014.9 |
| 20260502193109 | 17 | 346 | 9.7 | 22.5 | 0.00 | 0.00 | 0.00 | 35 | 1015.0 |
| 20260502192536 | 17 | 322 | 6.4 | 17.7 | 0.00 | 0.00 | 0.00 | 38 | 1015.1 |
| 20260502192001 | 16 | 298 | 8.0 | 19.3 | 0.00 | 0.00 | 0.00 | 37 | 1015.3 |
| 20260502191558 | 16 | 315 | 6.4 | 19.3 | 0.00 | 0.00 | 0.00 | 37 | 1015.3 |
| 20260502191008 | 16 | 328 | 4.8 | 17.7 | 0.00 | 0.00 | 0.00 | 37 | 1015.5 |
| 20260502190534 | 16 | 302 | 6.4 | 17.7 | 0.00 | 0.00 | 0.00 | 37 | 1015.6 |
| 20260502185549 | 16 | 329 | 9.7 | 17.7 | 0.00 | 0.00 | 0.00 | 36 | 1015.8 |
| 20260502185016 | 16 | 22 | 6.4 | 19.3 | 0.00 | 0.00 | 0.00 | 39 | 1015.8 |
| 20260502184559 | 15 | 319 | 6.4 | 24.1 | 0.00 | 0.00 | 0.00 | 37 | 1016.0 |
| 20260502184040 | 16 | 323 | 14.5 | 24.1 | 0.00 | 0.00 | 0.00 | 38 | 1016.2 |
| 20260502183536 | 16 | 328 | 4.8 | 17.7 | 0.00 | 0.00 | 0.00 | 37 | 1016.1 |
| 20260502183105 | 16 | 325 | 6.4 | 16.1 | 0.00 | 0.00 | 0.00 | 38 | 1016.4 |
| 20260502182542 | 15 | 321 | 3.2 | 14.5 | 0.00 | 0.00 | 0.00 | 40 | 1016.3 |
| 20260502182024 | 15 | 324 | 8.0 | 20.9 | 0.00 | 0.00 | 0.00 | 38 | 1016.5 |
| 20260502181552 | 15 | 261 | 9.7 | 20.9 | 0.00 | 0.00 | 0.00 | 39 | 1016.5 |
| 20260502181029 | 15 | 284 | 4.8 | 17.7 | 0.00 | 0.00 | 0.00 | 40 | 1016.6 |
| 20260502180507 | 15 | 327 | 6.4 | 20.9 | 0.00 | 0.00 | 0.00 | 38 | 1016.7 |
| 20260502170514 | 13 | 327 | 3.2 | 16.1 | 0.00 | 0.00 | 0.00 | 40 | 1017.7 |
| 20260502170108 | 13 | 306 | 4.8 | 19.3 | 0.00 | 0.00 | 0.00 | 39 | 1017.8 |
| 20260502164011 | 13 | 321 | 4.8 | 16.1 | 0.00 | 0.00 | 0.00 | 41 | 1018.0 |
| 20260502163558 | 13 | 350 | 8.0 | 16.1 | 0.00 | 0.00 | 0.00 | 40 | 1018.2 |
| 20260502163048 | 13 | 289 | 4.8 | 16.1 | 0.00 | 0.00 | 0.00 | 44 | 1018.2 |
| 20260502162532 | 13 | 305 | 4.8 | 17.7 | 0.00 | 0.00 | 0.00 | 44 | 1018.3 |
| 20260502162007 | 13 | 15 | 6.4 | 14.5 | 0.00 | 0.00 | 0.00 | 43 | 1018.4 |
| 20260502161543 | 12 | 331 | 3.2 | 14.5 | 0.00 | 0.00 | 0.00 | 44 | 1018.4 |
| 20260502161004 | 12 | 333 | 6.4 | 16.1 | 0.00 | 0.00 | 0.00 | 43 | 1018.5 |
| 20260502160542 | 12 | 294 | 9.7 | 20.9 | 0.00 | 0.00 | 0.00 | 43 | 1018.5 |
| 20260502152039 | 12 | 304 | 1.6 | 19.3 | 0.00 | 0.00 | 0.00 | 49 | 1018.9 |
| 20260502151533 | 11 | 315 | 8.0 | 19.3 | 0.00 | 0.00 | 0.00 | 48 | 1019.0 |
| 20260502151028 | 11 | 329 | 1.6 | 16.1 | 0.00 | 0.00 | 0.00 | 51 | 1019.0 |
| 20260502150524 | 11 | 347 | 4.8 | 16.1 | 0.00 | 0.00 | 0.00 | 50 | 1019.1 |
| 20260502130516 | 6 | 317 | 1.6 | 12.9 | 0.00 | 0.00 | 0.00 | 64 | 1019.5 |
| 20260502123516 | 5 | 360 | 1.6 | 8.0 | 0.00 | 0.00 | 0.00 | 67 | 1019.5 |
| 20260502123039 | 5 | 360 | 1.6 | 8.0 | 0.00 | 0.00 | 0.00 | 67 | 1019.5 |
| 20260502122559 | 5 | 360 | 1.6 | 8.0 | 0.00 | 0.00 | 0.00 | 68 | 1019.5 |
| 20260502122007 | 5 | 360 | 1.6 | 8.0 | 0.00 | 0.00 | 0.00 | 69 | 1019.5 |
| 20260502121526 | 4 | 360 | 3.2 | 8.0 | 0.00 | 0.00 | 0.00 | 70 | 1019.5 |
| 20260502121110 | 3 | 360 | 0.0 | 6.4 | 0.00 | 0.00 | 0.00 | 73 | 1019.5 |
| 20260502120543 | 3 | 317 | 0.0 | 4.8 | 0.00 | 0.00 | 0.00 | 76 | 1019.4 |
| 20260502120104 | 2 | 360 | 1.6 | 4.8 | 0.00 | 0.00 | 0.00 | 77 | 1019.5 |
| 20260502115513 | 2 | 360 | 0.0 | 1.6 | 0.00 | 0.00 | 0.00 | 79 | 1019.4 |
| 20260502115049 | 2 | 360 | 0.0 | 4.8 | 0.00 | 0.00 | 0.00 | 79 | 1019.4 |
| 20260502114509 | 1 | 360 | 0.0 | 4.8 | 0.00 | 0.00 | 0.00 | 80 | 1019.3 |
| 20260502114048 | 1 | 360 | 0.0 | 3.2 | 0.00 | 0.00 | 0.00 | 80 | 1019.3 |
| 20260502113608 | 1 | 360 | 0.0 | 0.0 | 0.00 | 0.00 | 0.00 | 81 | 1019.3 |
| 20260502113020 | 1 | 360 | 0.0 | 0.0 | 0.00 | 0.00 | 0.00 | 80 | 1019.3 |
| 20260502112602 | 1 | 360 | 0.0 | 0.0 | 0.00 | 0.00 | 0.00 | 78 | 1019.2 |
| 20260502112049 | 1 | 360 | 0.0 | 0.0 | 0.00 | 0.00 | 0.00 | 78 | 1019.2 |
| 20260502111507 | 2 | 360 | 0.0 | 0.0 | 0.00 | 0.00 | 0.00 | 76 | 1019.2 |
| 20260502111039 | 2 | 360 | 0.0 | 0.0 | 0.00 | 0.00 | 0.00 | 76 | 1019.1 |
| 20260502110522 | 2 | 360 | 0.0 | 0.0 | 0.00 | 0.00 | 0.00 | 75 | 1019.2 |
| 20260502110051 | 2 | 360 | 0.0 | 1.6 | 0.00 | 0.00 | 0.00 | 74 | 1019.2 |
| 20260502105511 | 2 | 360 | 0.0 | 1.6 | 0.00 | 0.00 | 0.00 | 74 | 1019.2 |
| 20260502105052 | 2 | 360 | 0.0 | 4.8 | 0.00 | 0.00 | 0.00 | 73 | 1019.2 |
| 20260502104501 | 2 | 360 | 0.0 | 4.8 | 0.00 | 0.00 | 0.00 | 72 | 1019.2 |
| 20260502104024 | 3 | 360 | 0.0 | 0.0 | 0.00 | 0.00 | 0.00 | 73 | 1019.2 |
| 20260502103542 | 3 | 360 | 0.0 | 0.0 | 0.00 | 0.00 | 0.00 | 72 | 1019.2 |
| 20260502103108 | 3 | 360 | 0.0 | 0.0 | 0.00 | 0.00 | 0.00 | 71 | 1019.2 |
| 20260502102512 | 3 | 360 | 0.0 | 1.6 | 0.00 | 0.00 | 0.00 | 69 | 1019.2 |
| 20260502102047 | 3 | 360 | 0.0 | 3.2 | 0.00 | 0.00 | 0.00 | 69 | 1019.2 |
| 20260502101524 | 3 | 360 | 0.0 | 3.2 | 0.00 | 0.00 | 0.00 | 68 | 1019.1 |
| 20260502101049 | 3 | 360 | 0.0 | 8.0 | 0.00 | 0.00 | 0.00 | 67 | 1019.2 |
| 20260502100543 | 3 | 360 | 1.6 | 8.0 | 0.00 | 0.00 | 0.00 | 67 | 1019.2 |
| 20260502100106 | 3 | 360 | 0.0 | 1.6 | 0.00 | 0.00 | 0.00 | 68 | 1019.2 |
| 20260502091532 | 5 | 360 | 0.0 | 4.8 | 0.00 | 0.00 | 0.00 | 63 | 1019.1 |
| 20260502091010 | 5 | 360 | 0.0 | 6.4 | 0.00 | 0.00 | 0.00 | 61 | 1019.0 |
| 20260502090527 | 5 | 360 | 0.0 | 8.0 | 0.00 | 0.00 | 0.00 | 60 | 1019.0 |
| 20260502071519 | 3 | 360 | 0.0 | 6.4 | 0.00 | 0.00 | 0.00 | 71 | 1019.3 |
| 20260502071004 | 2 | 360 | 1.6 | 6.4 | 0.00 | 0.00 | 0.00 | 76 | 1019.3 |
| 20260502070526 | 2 | 360 | 0.0 | 4.8 | 0.00 | 0.00 | 0.00 | 82 | 1019.3 |
| 20260502065544 | 2 | 360 | 0.0 | 0.0 | 0.00 | 0.00 | 0.00 | 84 | 1019.3 |
| 20260502065002 | 2 | 360 | 0.0 | 0.0 | 0.00 | 0.00 | 0.00 | 84 | 1019.4 |
| 20260502064618 | 2 | 360 | 0.0 | 0.0 | 0.00 | 0.00 | 0.00 | 84 | 1019.4 |
| 20260502064041 | 2 | 360 | 0.0 | 0.0 | 0.00 | 0.00 | 0.00 | 83 | 1019.4 |
| 20260502063504 | 2 | 360 | 0.0 | 0.0 | 0.00 | 0.00 | 0.00 | 83 | 1019.5 |
| 20260502063055 | 2 | 360 | 0.0 | 0.0 | 0.00 | 0.00 | 0.00 | 83 | 1019.5 |
| 20260502062537 | 2 | 360 | 0.0 | 0.0 | 0.00 | 0.00 | 0.00 | 83 | 1019.5 |
| 20260502062049 | 2 | 360 | 0.0 | 0.0 | 0.00 | 0.00 | 0.00 | 83 | 1019.5 |
| 20260502061540 | 2 | 360 | 0.0 | 0.0 | 0.00 | 0.00 | 0.00 | 83 | 1019.5 |
| 20260502061103 | 2 | 360 | 0.0 | 0.0 | 0.00 | 0.00 | 0.00 | 83 | 1019.5 |
| 20260502060523 | 2 | 360 | 0.0 | 0.0 | 0.00 | 0.00 | 0.00 | 83 | 1019.5 |
| 20260502060011 | 2 | 360 | 0.0 | 0.0 | 0.00 | 0.00 | 0.00 | 82 | 1019.5 |
| 20260502055601 | 2 | 360 | 0.0 | 0.0 | 0.00 | 0.00 | 0.00 | 82 | 1019.5 |
| 20260502055040 | 2 | 360 | 0.0 | 0.0 | 0.00 | 0.00 | 0.00 | 82 | 1019.5 |
| 20260502054529 | 2 | 360 | 0.0 | 0.0 | 0.00 | 0.00 | 0.00 | 82 | 1019.5 |
| 20260502054049 | 2 | 360 | 0.0 | 0.0 | 0.00 | 0.00 | 0.00 | 82 | 1019.5 |
| 20260502053539 | 2 | 360 | 0.0 | 0.0 | 0.00 | 0.00 | 0.00 | 82 | 1019.5 |
| 20260502053030 | 2 | 360 | 0.0 | 0.0 | 0.00 | 0.00 | 0.00 | 81 | 1019.5 |
| 20260502052524 | 3 | 360 | 0.0 | 0.0 | 0.00 | 0.00 | 0.00 | 81 | 1019.5 |
| 20260502052001 | 3 | 360 | 0.0 | 0.0 | 0.00 | 0.00 | 0.00 | 81 | 1019.5 |
| 20260502051556 | 3 | 360 | 0.0 | 0.0 | 0.00 | 0.00 | 0.00 | 80 | 1019.5 |
| 20260502051016 | 3 | 360 | 0.0 | 0.0 | 0.00 | 0.00 | 0.00 | 80 | 1019.6 |
| 20260502050533 | 3 | 360 | 0.0 | 0.0 | 0.00 | 0.00 | 0.00 | 80 | 1019.5 |
| 20260502050031 | 3 | 360 | 0.0 | 0.0 | 0.00 | 0.00 | 0.00 | 79 | 1019.4 |
| 20260502045559 | 3 | 360 | 0.0 | 0.0 | 0.00 | 0.00 | 0.00 | 80 | 1019.4 |
| 20260502045054 | 3 | 360 | 0.0 | 0.0 | 0.00 | 0.00 | 0.00 | 79 | 1019.3 |
| 20260502044526 | 3 | 360 | 0.0 | 0.0 | 0.00 | 0.00 | 0.00 | 78 | 1019.4 |
| 20260502044108 | 3 | 360 | 0.0 | 0.0 | 0.00 | 0.00 | 0.00 | 76 | 1019.4 |
| 20260502043518 | 3 | 360 | 0.0 | 0.0 | 0.00 | 0.00 | 0.00 | 76 | 1019.4 |
| 20260502043106 | 3 | 360 | 0.0 | 0.0 | 0.00 | 0.00 | 0.00 | 77 | 1019.4 |
| 20260502042537 | 3 | 360 | 0.0 | 0.0 | 0.00 | 0.00 | 0.00 | 75 | 1019.4 |
| 20260502042002 | 3 | 360 | 0.0 | 0.0 | 0.00 | 0.00 | 0.00 | 74 | 1019.3 |
| 20260502041601 | 4 | 360 | 0.0 | 0.0 | 0.00 | 0.00 | 0.00 | 75 | 1019.3 |
| 20260502041005 | 4 | 360 | 0.0 | 0.0 | 0.00 | 0.00 | 0.00 | 74 | 1019.4 |
| 20260502040525 | 4 | 360 | 0.0 | 0.0 | 0.00 | 0.00 | 0.00 | 72 | 1019.4 |
| 20260502040047 | 4 | 360 | 0.0 | 0.0 | 0.00 | 0.00 | 0.00 | 68 | 1019.3 |
| 20260502035517 | 4 | 360 | 0.0 | 0.0 | 0.00 | 0.00 | 0.00 | 62 | 1019.4 |
| 20260502035035 | 5 | 360 | 0.0 | 0.0 | 0.00 | 0.00 | 0.00 | 63 | 1019.3 |
| 20260502034555 | 5 | 360 | 0.0 | 0.0 | 0.00 | 0.00 | 0.00 | 65 | 1019.3 |
| 20260502034034 | 5 | 360 | 0.0 | 0.0 | 0.00 | 0.00 | 0.00 | 64 | 1019.4 |
| 20260502033502 | 5 | 360 | 0.0 | 0.0 | 0.00 | 0.00 | 0.00 | 62 | 1019.4 |
| 20260502033030 | 5 | 360 | 0.0 | 0.0 | 0.00 | 0.00 | 0.00 | 61 | 1019.5 |
| 20260502032511 | 5 | 360 | 0.0 | 0.0 | 0.00 | 0.00 | 0.00 | 60 | 1019.5 |
| 20260502032041 | 6 | 360 | 0.0 | 0.0 | 0.00 | 0.00 | 0.00 | 58 | 1019.5 |
| 20260502031607 | 6 | 360 | 0.0 | 0.0 | 0.00 | 0.00 | 0.00 | 57 | 1019.4 |
| 20260502031036 | 6 | 360 | 0.0 | 0.0 | 0.00 | 0.00 | 0.00 | 58 | 1019.4 |
| 20260502030555 | 6 | 360 | 0.0 | 0.0 | 0.00 | 0.00 | 0.00 | 57 | 1019.4 |
| 20260502030020 | 6 | 360 | 0.0 | 0.0 | 0.00 | 0.00 | 0.00 | 57 | 1019.4 |
| 20260502025551 | 6 | 360 | 0.0 | 0.0 | 0.00 | 0.00 | 0.00 | 56 | 1019.4 |
| 20260502025019 | 6 | 360 | 0.0 | 0.0 | 0.00 | 0.00 | 0.00 | 55 | 1019.4 |
| 20260502024548 | 6 | 360 | 0.0 | 0.0 | 0.00 | 0.00 | 0.00 | 54 | 1019.4 |
| 20260502024103 | 6 | 360 | 0.0 | 0.0 | 0.00 | 0.00 | 0.00 | 54 | 1019.4 |
| 20260502023536 | 7 | 360 | 0.0 | 0.0 | 0.00 | 0.00 | 0.00 | 52 | 1019.4 |
| 20260502023005 | 7 | 360 | 0.0 | 0.0 | 0.00 | 0.00 | 0.00 | 53 | 1019.4 |
| 20260502022524 | 7 | 360 | 0.0 | 0.0 | 0.00 | 0.00 | 0.00 | 53 | 1019.3 |
| 20260502022008 | 7 | 360 | 0.0 | 0.0 | 0.00 | 0.00 | 0.00 | 52 | 1019.3 |
| 20260502021543 | 7 | 360 | 0.0 | 0.0 | 0.00 | 0.00 | 0.00 | 51 | 1019.3 |
| 20260502021106 | 7 | 360 | 0.0 | 0.0 | 0.00 | 0.00 | 0.00 | 52 | 1019.2 |
| 20260502020532 | 7 | 360 | 0.0 | 0.0 | 0.00 | 0.00 | 0.00 | 51 | 1019.2 |
| 20260502020059 | 8 | 360 | 0.0 | 0.0 | 0.00 | 0.00 | 0.00 | 52 | 1019.2 |
| 20260502015533 | 8 | 360 | 0.0 | 0.0 | 0.00 | 0.00 | 0.00 | 48 | 1019.1 |
| 20260502015111 | 8 | 360 | 0.0 | 0.0 | 0.00 | 0.00 | 0.00 | 48 | 1019.0 |
| 20260502014521 | 8 | 360 | 0.0 | 0.0 | 0.00 | 0.00 | 0.00 | 46 | 1019.0 |
| 20260502014040 | 8 | 360 | 0.0 | 0.0 | 0.00 | 0.00 | 0.00 | 46 | 1018.9 |
| 20260502013603 | 8 | 360 | 0.0 | 1.6 | 0.00 | 0.00 | 0.00 | 46 | 1018.9 |
| 20260502013011 | 9 | 360 | 0.0 | 1.6 | 0.00 | 0.00 | 0.00 | 44 | 1018.9 |
| 20260502012557 | 9 | 360 | 0.0 | 1.6 | 0.00 | 0.00 | 0.00 | 43 | 1018.8 |
| 20260502012031 | 10 | 360 | 0.0 | 1.6 | 0.00 | 0.00 | 0.00 | 42 | 1018.8 |
| 20260502011609 | 10 | 360 | 0.0 | 1.6 | 0.00 | 0.00 | 0.00 | 42 | 1018.8 |
| 20260502011034 | 10 | 360 | 0.0 | 6.4 | 0.00 | 0.00 | 0.00 | 41 | 1018.8 |
| 20260502010506 | 10 | 339 | 1.6 | 6.4 | 0.00 | 0.00 | 0.00 | 41 | 1018.8 |
| 20260502010101 | 10 | 239 | 0.0 | 4.8 | 0.00 | 0.00 | 0.00 | 41 | 1018.8 |
| 20260502005511 | 10 | 184 | 1.6 | 6.4 | 0.00 | 0.00 | 0.00 | 40 | 1018.7 |
| 20260502005044 | 10 | 319 | 0.0 | 8.0 | 0.00 | 0.00 | 0.00 | 40 | 1018.8 |
| 20260502004503 | 10 | 329 | 3.2 | 8.0 | 0.00 | 0.00 | 0.00 | 40 | 1018.8 |
| 20260502004047 | 10 | 321 | 3.2 | 8.0 | 0.00 | 0.00 | 0.00 | 39 | 1018.7 |
| 20260502003606 | 10 | 320 | 1.6 | 6.4 | 0.00 | 0.00 | 0.00 | 40 | 1018.7 |
| 20260502003016 | 10 | 325 | 3.2 | 9.7 | 0.00 | 0.00 | 0.00 | 40 | 1018.8 |
| 20260502002546 | 10 | 314 | 4.8 | 9.7 | 0.00 | 0.00 | 0.00 | 40 | 1018.8 |
| 20260502002036 | 10 | 329 | 0.0 | 6.4 | 0.00 | 0.00 | 0.00 | 40 | 1018.8 |
| 20260502001624 | 10 | 338 | 1.6 | 6.4 | 0.00 | 0.00 | 0.00 | 41 | 1018.7 |
| 20260502001005 | 10 | 173 | 1.6 | 4.8 | 0.00 | 0.00 | 0.00 | 40 | 1018.6 |
| 20260502000549 | 10 | 182 | 0.0 | 3.2 | 0.00 | 0.00 | 0.00 | 40 | 1018.7 |
| 20260502000124 | 10 | 182 | 0.0 | 3.2 | 0.00 | 0.00 | 0.00 | 40 | 1018.7 |
| 20260501235542 | 10 | 191 | 1.6 | 6.4 | 0.00 | 0.00 | 0.00 | 40 | 1018.6 |
| 20260501235103 | 10 | 88 | 1.6 | 6.4 | 0.00 | 0.00 | 0.00 | 39 | 1018.6 |
| 20260501234533 | 11 | 128 | 1.6 | 9.7 | 0.00 | 0.00 | 0.00 | 38 | 1018.6 |
| 20260501234058 | 11 | 216 | 0.0 | 3.2 | 0.00 | 0.00 | 0.00 | 39 | 1018.7 |
| 20260501233507 | 10 | 218 | 0.0 | 3.2 | 0.00 | 0.00 | 0.00 | 38 | 1018.7 |
| 20260501233027 | 10 | 203 | 0.0 | 4.8 | 0.00 | 0.00 | 0.00 | 40 | 1018.7 |
| 20260501232503 | 10 | 254 | 3.2 | 4.8 | 0.00 | 0.00 | 0.00 | 39 | 1018.7 |
| 20260501232040 | 10 | 206 | 0.0 | 4.8 | 0.00 | 0.00 | 0.00 | 39 | 1018.6 |
| 20260501231608 | 10 | 128 | 0.0 | 8.0 | 0.00 | 0.00 | 0.00 | 40 | 1018.7 |
| 20260501231053 | 11 | 126 | 1.6 | 8.0 | 0.00 | 0.00 | 0.00 | 39 | 1018.7 |
| 20260501230524 | 11 | 256 | 1.6 | 8.0 | 0.00 | 0.00 | 0.00 | 38 | 1018.7 |
| 20260501230054 | 11 | 335 | 0.0 | 8.0 | 0.00 | 0.00 | 0.00 | 38 | 1018.7 |
| 20260501225513 | 11 | 314 | 1.6 | 9.7 | 0.00 | 0.00 | 0.00 | 42 | 1018.7 |
| 20260501225041 | 11 | 126 | 1.6 | 9.7 | 0.00 | 0.00 | 0.00 | 38 | 1018.7 |
| 20260501224551 | 11 | 157 | 1.6 | 9.7 | 0.00 | 0.00 | 0.00 | 38 | 1018.7 |
| 20260501224109 | 11 | 213 | 1.6 | 6.4 | 0.00 | 0.00 | 0.00 | 40 | 1018.7 |
| 20260501223519 | 11 | 205 | 0.0 | 9.7 | 0.00 | 0.00 | 0.00 | 40 | 1018.6 |
| 20260501223039 | 11 | 142 | 1.6 | 9.7 | 0.00 | 0.00 | 0.00 | 39 | 1018.7 |
| 20260501222513 | 10 | 132 | 0.0 | 6.4 | 0.00 | 0.00 | 0.00 | 41 | 1018.8 |
| 20260501222033 | 11 | 119 | 0.0 | 14.5 | 0.00 | 0.00 | 0.00 | 40 | 1018.8 |
| 20260501221600 | 11 | 119 | 6.4 | 14.5 | 0.00 | 0.00 | 0.00 | 37 | 1018.8 |
| 20260501221030 | 11 | 136 | 3.2 | 6.4 | 0.00 | 0.00 | 0.00 | 37 | 1018.8 |
| 20260501220547 | 11 | 330 | 0.0 | 6.4 | 0.00 | 0.00 | 0.00 | 39 | 1018.8 |
| 20260501220025 | 11 | 321 | 3.2 | 12.9 | 0.00 | 0.00 | 0.00 | 38 | 1018.8 |
| 20260501215543 | 12 | 315 | 4.8 | 12.9 | 0.00 | 0.00 | 0.00 | 36 | 1018.8 |
| 20260501215011 | 12 | 165 | 0.0 | 4.8 | 0.00 | 0.00 | 0.00 | 38 | 1018.8 |
| 20260501214537 | 12 | 277 | 0.0 | 6.4 | 0.00 | 0.00 | 0.00 | 38 | 1018.7 |
| 20260501214007 | 11 | 321 | 3.2 | 8.0 | 0.00 | 0.00 | 0.00 | 41 | 1018.7 |
| 20260501213539 | 11 | 328 | 1.6 | 8.0 | 0.00 | 0.00 | 0.00 | 37 | 1018.7 |